Station Historical Data
Daily Summary for August 10, 2017 Units:  English    Metric   Both
« Previous Day
Next Day »
Daily Weekly Monthly Yearly Custom
  High: Low: Average:
Temperature: 84.9 °F 58.7 °F 72.9 °F
Dew Point: 64.4 °F 51.6 °F 57.9 °F
Humidity: 88% 35% 62%
Wind Speed: 7.0mph 0.0mph 1.4mph
Wind Gust: 10.0mph - -
Wind- - SSW
Pressure: 30.19 in 30.05 in -
Precipitation: 0.00 in    
Historical Graphs
 
 
Tabular Data for August 10, 2017
Time Temperature Dew Point Pressure Wind Wind Speed Wind Gust Humidity Rainfall Rate (Hourly)
00:04 65.3 °F 58.6 °F 30.19 in Calm   1.0 mph 79% 0.00 in
00:09 65.1 °F 58.4 °F 30.19 in Calm   1.0 mph 79% 0.00 in
00:14 64.9 °F 58.2 °F 30.18 in Calm   1.0 mph 79% 0.00 in
00:19 64.6 °F 58.3 °F 30.18 in Calm   1.0 mph 80% 0.00 in
00:24 64.5 °F 58.2 °F 30.18 in Calm     80% 0.00 in
00:29 64.3 °F 58.0 °F 30.18 in Calm     80% 0.00 in
00:34 64.0 °F 57.7 °F 30.18 in Calm     80% 0.00 in
00:39 64.0 °F 57.7 °F 30.18 in Calm     80% 0.00 in
00:44 63.9 °F 57.6 °F 30.18 in Calm     80% 0.00 in
00:49 63.9 °F 57.6 °F 30.18 in Calm     80% 0.00 in
00:54 63.8 °F 57.5 °F 30.18 in Calm     80% 0.00 in
00:59 63.5 °F 57.2 °F 30.18 in Calm     80% 0.00 in
01:04 63.1 °F 57.2 °F 30.18 in Calm     81% 0.00 in
01:09 62.9 °F 57.0 °F 30.18 in Calm     81% 0.00 in
01:14 62.6 °F 56.7 °F 30.19 in Calm     81% 0.00 in
01:19 62.4 °F 56.8 °F 30.19 in Calm     82% 0.00 in
01:24 62.5 °F 56.9 °F 30.19 in Calm     82% 0.00 in
01:29 62.5 °F 56.6 °F 30.19 in Calm     81% 0.00 in
01:34 62.4 °F 56.8 °F 30.19 in Calm     82% 0.00 in
01:39 62.3 °F 56.7 °F 30.19 in Calm     82% 0.00 in
01:44 62.3 °F 56.7 °F 30.18 in Calm     82% 0.00 in
01:49 62.4 °F 57.2 °F 30.18 in Calm     83% 0.00 in
01:54 62.4 °F 56.8 °F 30.18 in Calm     82% 0.00 in
01:59 62.2 °F 57.0 °F 30.18 in Calm     83% 0.00 in
02:04 61.9 °F 56.7 °F 30.18 in Calm     83% 0.00 in
02:09 61.6 °F 56.4 °F 30.18 in Calm     83% 0.00 in
02:14 61.4 °F 56.5 °F 30.18 in Calm     84% 0.00 in
02:19 61.2 °F 56.3 °F 30.18 in Calm     84% 0.00 in
02:24 61.2 °F 56.3 °F 30.18 in Calm     84% 0.00 in
02:29 61.1 °F 56.2 °F 30.18 in Calm     84% 0.00 in
02:34 61.1 °F 56.2 °F 30.18 in Calm     84% 0.00 in
02:39 61.0 °F 56.1 °F 30.17 in Calm     84% 0.00 in
02:44 61.0 °F 56.1 °F 30.17 in Calm     84% 0.00 in
02:49 61.0 °F 56.1 °F 30.18 in Calm     84% 0.00 in
02:54 61.1 °F 55.9 °F 30.17 in Calm     83% 0.00 in
02:59 61.3 °F 56.1 °F 30.17 in Calm     83% 0.00 in
03:04 61.3 °F 56.1 °F 30.17 in Calm     83% 0.00 in
03:09 61.5 °F 56.3 °F 30.17 in Calm     83% 0.00 in
03:14 61.6 °F 56.4 °F 30.17 in Calm     83% 0.00 in
03:19 61.6 °F 56.0 °F 30.17 in Calm     82% 0.00 in
03:24 61.3 °F 55.8 °F 30.17 in Calm     82% 0.00 in
03:29 61.3 °F 56.1 °F 30.17 in Calm     83% 0.00 in
03:34 61.5 °F 56.3 °F 30.17 in Calm     83% 0.00 in
03:39 61.5 °F 56.3 °F 30.17 in Calm     83% 0.00 in
03:44 61.3 °F 56.4 °F 30.17 in Calm     84% 0.00 in
03:49 61.2 °F 56.3 °F 30.17 in Calm     84% 0.00 in
03:54 61.3 °F 56.4 °F 30.17 in Calm     84% 0.00 in
03:59 61.3 °F 56.4 °F 30.17 in Calm     84% 0.00 in
04:04 61.3 °F 56.4 °F 30.17 in Calm     84% 0.00 in
04:09 61.2 °F 56.3 °F 30.17 in Calm     84% 0.00 in
04:14 61.2 °F 56.3 °F 30.17 in Calm     84% 0.00 in
04:19 61.1 °F 56.2 °F 30.17 in Calm     84% 0.00 in
04:24 61.0 °F 56.1 °F 30.17 in Calm     84% 0.00 in
04:29 60.9 °F 56.4 °F 30.17 in Calm     85% 0.00 in
04:34 60.8 °F 56.3 °F 30.17 in Calm     85% 0.00 in
04:39 60.8 °F 56.3 °F 30.17 in Calm     85% 0.00 in
04:44 60.8 °F 56.3 °F 30.17 in Calm     85% 0.00 in
04:49 60.8 °F 56.3 °F 30.17 in Calm     85% 0.00 in
04:54 60.8 °F 56.3 °F 30.16 in Calm     85% 0.00 in
04:59 60.7 °F 56.2 °F 30.16 in Calm     85% 0.00 in
05:04 60.7 °F 56.2 °F 30.16 in Calm     85% 0.00 in
05:09 60.7 °F 56.2 °F 30.16 in Calm     85% 0.00 in
05:14 60.6 °F 56.1 °F 30.16 in Calm     85% 0.00 in
05:19 60.5 °F 56.0 °F 30.16 in Calm     85% 0.00 in
05:24 60.4 °F 55.9 °F 30.16 in Calm     85% 0.00 in
05:29 60.3 °F 55.8 °F 30.16 in Calm     85% 0.00 in
05:34 60.1 °F 55.6 °F 30.16 in Calm     85% 0.00 in
05:39 59.9 °F 55.4 °F 30.17 in Calm     85% 0.00 in
05:44 59.9 °F 55.4 °F 30.17 in Calm     85% 0.00 in
05:49 59.7 °F 55.2 °F 30.17 in Calm     85% 0.00 in
05:54 59.8 °F 55.6 °F 30.17 in Calm     86% 0.00 in
05:59 59.7 °F 55.2 °F 30.17 in Calm     85% 0.00 in
06:04 59.5 °F 55.0 °F 30.17 in Calm     85% 0.00 in
06:09 59.3 °F 55.1 °F 30.17 in Calm     86% 0.00 in
06:14 59.1 °F 54.9 °F 30.17 in Calm     86% 0.00 in
06:19 59.0 °F 54.8 °F 30.17 in Calm     86% 0.00 in
06:24 58.8 °F 54.9 °F 30.18 in Calm     87% 0.00 in
06:29 58.7 °F 54.8 °F 30.18 in Calm     87% 0.00 in
06:34 58.7 °F 54.8 °F 30.18 in Calm     87% 0.00 in
06:39 58.7 °F 55.2 °F 30.18 in Calm     88% 0.00 in
06:44 58.9 °F 55.4 °F 30.18 in Calm     88% 0.00 in
06:49 59.1 °F 55.5 °F 30.18 in Calm     88% 0.00 in
06:54 59.4 °F 55.5 °F 30.18 in Calm     87% 0.00 in
06:59 59.9 °F 56.0 °F 30.18 in Calm     87% 0.00 in
07:04 60.4 °F 56.2 °F 30.18 in Calm     86% 0.00 in
07:09 60.9 °F 56.4 °F 30.18 in Calm     85% 0.00 in
07:14 61.4 °F 56.8 °F 30.18 in Calm     85% 0.00 in
07:19 61.9 °F 57.0 °F 30.18 in Calm     84% 0.00 in
07:24 62.5 °F 57.3 °F 30.18 in SSW 2.0 mph 2.0 mph 83% 0.00 in
07:29 62.9 °F 57.3 °F 30.18 in Calm   2.0 mph 82% 0.00 in
07:34 63.4 °F 57.5 °F 30.18 in Calm   1.0 mph 81% 0.00 in
07:39 64.0 °F 57.7 °F 30.18 in Calm   1.0 mph 80% 0.00 in
07:44 64.5 °F 57.8 °F 30.18 in Calm   1.0 mph 79% 0.00 in
07:49 65.0 °F 58.0 °F 30.19 in Calm     78% 0.00 in
07:54 65.4 °F 58.4 °F 30.19 in Calm   2.0 mph 78% 0.00 in
07:59 65.8 °F 58.4 °F 30.18 in Calm   2.0 mph 77% 0.00 in
08:04 66.3 °F 58.5 °F 30.19 in Calm     76% 0.00 in
08:09 66.7 °F 58.5 °F 30.19 in Calm     75% 0.00 in
08:14 66.9 °F 58.7 °F 30.19 in Calm     75% 0.00 in
08:19 67.5 °F 59.3 °F 30.19 in Calm     75% 0.00 in
08:29 68.6 °F 59.6 °F 30.19 in Calm     73% 0.00 in
08:34 69.2 °F 59.4 °F 30.19 in Calm   3.0 mph 71% 0.00 in
08:39 69.5 °F 59.3 °F 30.19 in SSE 3.0 mph 4.0 mph 70% 0.00 in
08:44 70.0 °F 59.4 °F 30.19 in SSE 2.0 mph 5.0 mph 69% 0.00 in
08:49 70.6 °F 59.9 °F 30.18 in SSE 3.0 mph 5.0 mph 69% 0.00 in
08:54 71.2 °F 59.7 °F 30.18 in South 2.0 mph 4.0 mph 67% 0.00 in
08:59 71.3 °F 59.4 °F 30.18 in South 2.0 mph 7.0 mph 66% 0.00 in
09:04 71.5 °F 59.1 °F 30.18 in South 2.0 mph 7.0 mph 65% 0.00 in
09:09 72.4 °F 60.0 °F 30.18 in South 2.0 mph 6.0 mph 65% 0.00 in
09:14 73.1 °F 60.6 °F 30.18 in SSW 2.0 mph 7.0 mph 65% 0.00 in
09:19 73.7 °F 59.4 °F 30.18 in SSW 3.0 mph 7.0 mph 61% 0.00 in
09:24 73.9 °F 59.6 °F 30.18 in South 2.0 mph 7.0 mph 61% 0.00 in
09:29 74.0 °F 59.2 °F 30.18 in SSW 3.0 mph 7.0 mph 60% 0.00 in
09:34 74.3 °F 59.5 °F 30.18 in SSW 4.0 mph 5.0 mph 60% 0.00 in
09:39 74.7 °F 59.4 °F 30.18 in SSE 3.0 mph 6.0 mph 59% 0.00 in
09:44 74.3 °F 58.6 °F 30.18 in SSW 1.0 mph 5.0 mph 58% 0.00 in
09:49 74.2 °F 58.5 °F 30.18 in SW 2.0 mph 7.0 mph 58% 0.00 in
09:54 74.4 °F 59.6 °F 30.18 in SW 4.0 mph 7.0 mph 60% 0.00 in
09:59 74.9 °F 59.6 °F 30.18 in SW 2.0 mph 6.0 mph 59% 0.00 in
10:04 75.2 °F 58.4 °F 30.18 in SW 4.0 mph 7.0 mph 56% 0.00 in
10:09 75.7 °F 59.9 °F 30.18 in SW 3.0 mph 7.0 mph 58% 0.00 in
10:14 76.4 °F 60.5 °F 30.17 in SSW 3.0 mph 7.0 mph 58% 0.00 in
10:19 76.2 °F 58.3 °F 30.18 in SSW 3.0 mph 7.0 mph 54% 0.00 in
10:24 76.5 °F 59.1 °F 30.18 in SSW 3.0 mph 7.0 mph 55% 0.00 in
10:29 77.3 °F 59.9 °F 30.17 in SSW 3.0 mph 7.0 mph 55% 0.00 in
10:34 78.3 °F 60.8 °F 30.17 in SW 3.0 mph 7.0 mph 55% 0.00 in
10:39 77.8 °F 60.3 °F 30.17 in SSW 1.0 mph 5.0 mph 55% 0.00 in
10:44 77.9 °F 60.4 °F 30.17 in SW 1.0 mph 3.0 mph 55% 0.00 in
10:49 78.3 °F 60.8 °F 30.17 in Calm   4.0 mph 55% 0.00 in
10:54 78.0 °F 60.5 °F 30.17 in SSW 2.0 mph 5.0 mph 55% 0.00 in
10:59 77.2 °F 60.3 °F 30.17 in SSW 5.0 mph 6.0 mph 56% 0.00 in
11:04 78.6 °F 60.6 °F 30.17 in SW 4.0 mph 6.0 mph 54% 0.00 in
11:09 78.4 °F 62.9 °F 30.17 in Calm   5.0 mph 59% 0.00 in
11:14 78.4 °F 60.4 °F 30.17 in WSW 2.0 mph 5.0 mph 54% 0.00 in
11:19 78.7 °F 60.1 °F 30.16 in WSW 2.0 mph 5.0 mph 53% 0.00 in
11:24 78.3 °F 60.8 °F 30.16 in SSW 3.0 mph 6.0 mph 55% 0.00 in
11:29 79.2 °F 61.6 °F 30.16 in South 3.0 mph 6.0 mph 55% 0.00 in
11:34 79.9 °F 62.3 °F 30.16 in SSW 2.0 mph 6.0 mph 55% 0.00 in
11:39 79.8 °F 61.7 °F 30.16 in West 4.0 mph 7.0 mph 54% 0.00 in
11:44 80.1 °F 60.3 °F 30.16 in SSW 3.0 mph 6.0 mph 51% 0.00 in
11:49 80.2 °F 61.0 °F 30.16 in SW 6.0 mph 10.0 mph 52% 0.00 in
11:54 80.0 °F 60.8 °F 30.16 in SW 3.0 mph 9.0 mph 52% 0.00 in
11:59 81.1 °F 62.3 °F 30.15 in WSW 5.0 mph 6.0 mph 53% 0.00 in
12:04 82.1 °F 61.6 °F 30.15 in SSW 2.0 mph 5.0 mph 50% 0.00 in
12:09 81.4 °F 61.5 °F 30.15 in NE 2.0 mph 7.0 mph 51% 0.00 in
12:14 80.4 °F 61.2 °F 30.15 in South 3.0 mph 7.0 mph 52% 0.00 in
12:19 81.1 °F 60.1 °F 30.15 in SSW 2.0 mph 6.0 mph 49% 0.00 in
12:24 81.1 °F 61.8 °F 30.15 in SSW 2.0 mph 7.0 mph 52% 0.00 in
12:29 80.3 °F 62.1 °F 30.15 in SW 3.0 mph 6.0 mph 54% 0.00 in
12:34 79.7 °F 61.6 °F 30.15 in SSW 2.0 mph 7.0 mph 54% 0.00 in
12:39 79.9 °F 60.2 °F 30.15 in East 2.0 mph 5.0 mph 51% 0.00 in
12:44 80.7 °F 60.9 °F 30.15 in SE 2.0 mph 5.0 mph 51% 0.00 in
12:49 81.4 °F 63.7 °F 30.14 in SW 1.0 mph 4.0 mph 55% 0.00 in
12:54 82.4 °F 61.3 °F 30.14 in SSW 2.0 mph 9.0 mph 49% 0.00 in
12:59 81.5 °F 61.1 °F 30.14 in SSE 3.0 mph 8.0 mph 50% 0.00 in
13:04 80.6 °F 60.8 °F 30.14 in ESE 3.0 mph 5.0 mph 51% 0.00 in
13:09 81.0 °F 60.0 °F 30.14 in SSE 3.0 mph 8.0 mph 49% 0.00 in
13:14 81.7 °F 61.2 °F 30.14 in SSE 2.0 mph 6.0 mph 50% 0.00 in
13:19 81.2 °F 60.2 °F 30.14 in SE 3.0 mph 7.0 mph 49% 0.00 in
13:24 80.9 °F 59.4 °F 30.14 in South 3.0 mph 7.0 mph 48% 0.00 in
13:29 81.2 °F 60.2 °F 30.14 in SW 4.0 mph 6.0 mph 49% 0.00 in
13:34 81.9 °F 60.9 °F 30.14 in South 3.0 mph 7.0 mph 49% 0.00 in
13:39 81.8 °F 58.4 °F 30.14 in SSW 2.0 mph 8.0 mph 45% 0.00 in
13:44 82.7 °F 59.2 °F 30.14 in SE 2.0 mph 7.0 mph 45% 0.00 in
13:49 82.3 °F 58.2 °F 30.13 in South 3.0 mph 8.0 mph 44% 0.00 in
13:54 81.6 °F 56.3 °F 30.14 in SW 3.0 mph 8.0 mph 42% 0.00 in
13:59 82.0 °F 57.3 °F 30.14 in SSW 3.0 mph 7.0 mph 43% 0.00 in
14:04 82.0 °F 57.3 °F 30.14 in WSW 3.0 mph 7.0 mph 43% 0.00 in
14:09 82.5 °F 58.4 °F 30.13 in WNW 3.0 mph 6.0 mph 44% 0.00 in
14:14 82.4 °F 55.0 °F 30.13 in SSW 3.0 mph 6.0 mph 39% 0.00 in
14:19 82.7 °F 55.9 °F 30.13 in SW 1.0 mph 7.0 mph 40% 0.00 in
14:24 83.0 °F 58.8 °F 30.13 in SSW 3.0 mph 7.0 mph 44% 0.00 in
14:29 83.3 °F 57.8 °F 30.13 in SSW 3.0 mph 8.0 mph 42% 0.00 in
14:34 82.8 °F 58.7 °F 30.13 in ESE 3.0 mph 6.0 mph 44% 0.00 in
14:39 83.0 °F 56.9 °F 30.12 in NE 2.0 mph 8.0 mph 41% 0.00 in
14:44 83.8 °F 61.4 °F 30.12 in South 1.0 mph 6.0 mph 47% 0.00 in
14:49 83.1 °F 60.2 °F 30.12 in South 2.0 mph 3.0 mph 46% 0.00 in
14:54 83.8 °F 61.4 °F 30.12 in SSE 2.0 mph 6.0 mph 47% 0.00 in
14:59 82.8 °F 58.7 °F 30.12 in SE 2.0 mph 6.0 mph 44% 0.00 in
15:04 82.4 °F 58.3 °F 30.12 in South 3.0 mph 7.0 mph 44% 0.00 in
15:09 82.1 °F 59.3 °F 30.11 in South 3.0 mph 7.0 mph 46% 0.00 in
15:14 81.8 °F 57.8 °F 30.11 in SSE 2.0 mph 7.0 mph 44% 0.00 in
15:19 81.6 °F 58.2 °F 30.11 in South 3.0 mph 5.0 mph 45% 0.00 in
15:24 82.0 °F 56.6 °F 30.11 in SSW 2.0 mph 6.0 mph 42% 0.00 in
15:29 82.4 °F 58.3 °F 30.11 in East 3.0 mph 5.0 mph 44% 0.00 in
15:34 83.4 °F 60.4 °F 30.11 in SE 2.0 mph 5.0 mph 46% 0.00 in
15:39 84.2 °F 58.6 °F 30.10 in SSE 6.0 mph 8.0 mph 42% 0.00 in
15:44 84.2 °F 56.6 °F 30.10 in East 2.0 mph 7.0 mph 39% 0.00 in
15:49 84.4 °F 60.7 °F 30.10 in SE 7.0 mph 10.0 mph 45% 0.00 in
15:54 84.9 °F 57.2 °F 30.10 in SSW 3.0 mph 7.0 mph 39% 0.00 in
15:59 84.3 °F 57.3 °F 30.10 in SSW 3.0 mph 8.0 mph 40% 0.00 in
16:04 84.5 °F 57.5 °F 30.10 in SW 3.0 mph 8.0 mph 40% 0.00 in
16:09 84.5 °F 59.5 °F 30.10 in WSW 2.0 mph 8.0 mph 43% 0.00 in
16:14 84.1 °F 56.5 °F 30.09 in WSW 3.0 mph 7.0 mph 39% 0.00 in
16:19 83.8 °F 60.2 °F 30.09 in WSW 3.0 mph 7.0 mph 45% 0.00 in
16:24 84.2 °F 61.2 °F 30.09 in WSW 2.0 mph 5.0 mph 46% 0.00 in
16:29 84.7 °F 57.0 °F 30.09 in WSW 3.0 mph 6.0 mph 39% 0.00 in
16:34 83.9 °F 57.0 °F 30.09 in WSW 3.0 mph 8.0 mph 40% 0.00 in
16:39 83.8 °F 55.5 °F 30.09 in West 1.0 mph 8.0 mph 38% 0.00 in
16:44 83.7 °F 57.5 °F 30.09 in WNW 2.0 mph 5.0 mph 41% 0.00 in
16:49 83.8 °F 54.7 °F 30.09 in Calm   6.0 mph 37% 0.00 in
16:54 84.0 °F 54.9 °F 30.09 in SW 1.0 mph 4.0 mph 37% 0.00 in
16:59 84.1 °F 55.0 °F 30.08 in West 3.0 mph 4.0 mph 37% 0.00 in
17:04 83.9 °F 57.7 °F 30.08 in WSW 2.0 mph 4.0 mph 41% 0.00 in
17:09 83.8 °F 54.0 °F 30.08 in WSW 2.0 mph 5.0 mph 36% 0.00 in
17:14 83.8 °F 55.5 °F 30.08 in South 2.0 mph 8.0 mph 38% 0.00 in
17:19 83.8 °F 56.2 °F 30.08 in SSW 4.0 mph 6.0 mph 39% 0.00 in
17:24 83.7 °F 55.4 °F 30.08 in SSE 2.0 mph 7.0 mph 38% 0.00 in
17:29 83.8 °F 56.2 °F 30.08 in SE 1.0 mph 5.0 mph 39% 0.00 in
17:34 83.9 °F 55.6 °F 30.08 in SE 3.0 mph 7.0 mph 38% 0.00 in
17:39 83.5 °F 55.9 °F 30.07 in SSE 4.0 mph 7.0 mph 39% 0.00 in
17:44 83.4 °F 55.8 °F 30.07 in SW 1.0 mph 5.0 mph 39% 0.00 in
17:49 83.8 °F 56.2 °F 30.07 in SW 1.0 mph 3.0 mph 39% 0.00 in
17:54 83.7 °F 56.8 °F 30.07 in SSE 1.0 mph 4.0 mph 40% 0.00 in
17:59 83.6 °F 56.7 °F 30.07 in SSE 4.0 mph 7.0 mph 40% 0.00 in
18:04 83.1 °F 57.6 °F 30.07 in SE 3.0 mph 9.0 mph 42% 0.00 in
18:09 83.0 °F 55.5 °F 30.07 in SSE 3.0 mph 9.0 mph 39% 0.00 in
18:14 83.0 °F 53.3 °F 30.07 in SSW 4.0 mph 8.0 mph 36% 0.00 in
18:19 82.6 °F 54.4 °F 30.07 in South 4.0 mph 5.0 mph 38% 0.00 in
18:24 82.5 °F 54.3 °F 30.07 in SSW 3.0 mph 8.0 mph 38% 0.00 in
18:29 82.0 °F 52.4 °F 30.07 in SSW 7.0 mph 10.0 mph 36% 0.00 in
18:34 81.8 °F 52.2 °F 30.06 in South 4.0 mph 10.0 mph 36% 0.00 in
18:39 81.9 °F 51.6 °F 30.06 in South 5.0 mph 9.0 mph 35% 0.00 in
18:44 81.6 °F 52.1 °F 30.06 in South 4.0 mph 8.0 mph 36% 0.00 in
18:49 81.5 °F 53.4 °F 30.06 in SSE 3.0 mph 4.0 mph 38% 0.00 in
18:54 81.6 °F 52.8 °F 30.06 in SSW 3.0 mph 4.0 mph 37% 0.00 in
18:59 81.1 °F 53.1 °F 30.06 in South 2.0 mph 6.0 mph 38% 0.00 in
19:04 80.7 °F 52.7 °F 30.06 in SSW 2.0 mph 6.0 mph 38% 0.00 in
19:09 80.5 °F 53.3 °F 30.06 in SSW 2.0 mph 6.0 mph 39% 0.00 in
19:14 80.5 °F 52.6 °F 30.06 in SSW 2.0 mph 6.0 mph 38% 0.00 in
19:19 80.6 °F 54.0 °F 30.06 in South 3.0 mph 4.0 mph 40% 0.00 in
19:24 80.1 °F 53.6 °F 30.06 in South 4.0 mph 6.0 mph 40% 0.00 in
19:29 79.8 °F 52.6 °F 30.06 in South 4.0 mph 6.0 mph 39% 0.00 in
19:34 79.6 °F 52.5 °F 30.06 in Calm   8.0 mph 39% 0.00 in
19:39 79.4 °F 53.6 °F 30.06 in SSW 2.0 mph 8.0 mph 41% 0.00 in
19:44 79.1 °F 53.4 °F 30.06 in SSW 2.0 mph 5.0 mph 41% 0.00 in
19:49 78.7 °F 53.0 °F 30.06 in SSW 2.0 mph 6.0 mph 41% 0.00 in
19:54 78.5 °F 52.8 °F 30.05 in South 2.0 mph 6.0 mph 41% 0.00 in
19:59 78.3 °F 52.7 °F 30.05 in Calm   4.0 mph 41% 0.00 in
20:04 78.1 °F 53.8 °F 30.05 in SSW 2.0 mph 5.0 mph 43% 0.00 in
20:09 77.9 °F 53.0 °F 30.05 in SSW 1.0 mph 5.0 mph 42% 0.00 in
20:14 77.7 °F 54.0 °F 30.05 in Calm   3.0 mph 44% 0.00 in
20:19 77.5 °F 53.9 °F 30.05 in SSW 2.0 mph 4.0 mph 44% 0.00 in
20:24 77.3 °F 53.7 °F 30.05 in Calm   3.0 mph 44% 0.00 in
20:29 77.2 °F 54.2 °F 30.05 in SSW 1.0 mph 4.0 mph 45% 0.00 in
20:34 77.2 °F 54.2 °F 30.05 in SSW 2.0 mph 4.0 mph 45% 0.00 in
20:39 77.1 °F 54.7 °F 30.05 in Calm   3.0 mph 46% 0.00 in
20:44 77.0 °F 54.6 °F 30.05 in SSW 1.0 mph 3.0 mph 46% 0.00 in
20:49 77.0 °F 54.6 °F 30.05 in SSW 1.0 mph 4.0 mph 46% 0.00 in
20:54 77.0 °F 55.2 °F 30.05 in South 1.0 mph 4.0 mph 47% 0.00 in
20:59 76.9 °F 55.1 °F 30.06 in SSE 1.0 mph 3.0 mph 47% 0.00 in
21:04 76.9 °F 55.1 °F 30.06 in Calm   4.0 mph 47% 0.00 in
21:09 76.9 °F 56.3 °F 30.07 in South 2.0 mph 6.0 mph 49% 0.00 in
21:14 76.7 °F 58.3 °F 30.07 in WSW 2.0 mph 10.0 mph 53% 0.00 in
21:19 76.3 °F 60.9 °F 30.07 in SW 3.0 mph 7.0 mph 59% 0.00 in
21:24 75.8 °F 61.4 °F 30.07 in SW 2.0 mph 7.0 mph 61% 0.00 in
21:29 75.4 °F 61.5 °F 30.07 in WSW 3.0 mph 6.0 mph 62% 0.00 in
21:34 75.2 °F 61.7 °F 30.07 in WSW 2.0 mph 5.0 mph 63% 0.00 in
21:39 75.0 °F 62.0 °F 30.07 in SW 3.0 mph 7.0 mph 64% 0.00 in
21:44 74.9 °F 62.3 °F 30.07 in SW 3.0 mph 7.0 mph 65% 0.00 in
21:49 74.7 °F 62.6 °F 30.07 in SW 2.0 mph 4.0 mph 66% 0.00 in
21:54 74.6 °F 62.5 °F 30.07 in SSW 2.0 mph 5.0 mph 66% 0.00 in
21:59 74.4 °F 63.1 °F 30.07 in SSW 1.0 mph 5.0 mph 68% 0.00 in
22:04 74.2 °F 63.8 °F 30.07 in SSW 1.0 mph 5.0 mph 70% 0.00 in
22:09 74.1 °F 64.1 °F 30.07 in Calm   5.0 mph 71% 0.00 in
22:14 74.0 °F 64.4 °F 30.07 in SW 2.0 mph 7.0 mph 72% 0.00 in
22:19 73.8 °F 64.2 °F 30.07 in SW 3.0 mph 7.0 mph 72% 0.00 in
22:24 73.7 °F 63.7 °F 30.07 in SW 2.0 mph 4.0 mph 71% 0.00 in
22:29 73.5 °F 63.5 °F 30.07 in SW 2.0 mph 3.0 mph 71% 0.00 in
22:34 73.5 °F 63.5 °F 30.07 in Calm   4.0 mph 71% 0.00 in
22:39 73.3 °F 63.3 °F 30.07 in Calm   3.0 mph 71% 0.00 in
22:44 73.0 °F 63.0 °F 30.07 in SW 2.0 mph 4.0 mph 71% 0.00 in
22:49 72.9 °F 62.9 °F 30.07 in SW 1.0 mph 4.0 mph 71% 0.00 in
22:54 72.9 °F 63.3 °F 30.07 in SW 1.0 mph 3.0 mph 72% 0.00 in
22:59 72.8 °F 62.8 °F 30.07 in Calm   3.0 mph 71% 0.00 in
23:04 72.8 °F 62.8 °F 30.07 in Calm     71% 0.00 in
23:09 72.8 °F 62.8 °F 30.07 in Calm     71% 0.00 in
23:14 72.8 °F 62.8 °F 30.07 in Calm   1.0 mph 71% 0.00 in
23:19 72.6 °F 63.1 °F 30.07 in Calm   1.0 mph 72% 0.00 in
23:24 72.5 °F 62.6 °F 30.06 in Calm   2.0 mph 71% 0.00 in
23:29 72.6 °F 63.1 °F 30.06 in Calm   4.0 mph 72% 0.00 in
23:34 72.6 °F 63.4 °F 30.06 in Calm   3.0 mph 73% 0.00 in
23:39 72.3 °F 62.8 °F 30.06 in SSE 1.0 mph 3.0 mph 72% 0.00 in
23:44 72.1 °F 62.6 °F 30.06 in Calm   1.0 mph 72% 0.00 in
23:49 71.9 °F 62.0 °F 30.06 in Calm     71% 0.00 in
23:54 71.6 °F 61.3 °F 30.06 in Calm     70% 0.00 in
23:59 71.3 °F 61.0 °F 30.07 in Calm     70% 0.00 in
Buffalo, New York, USA
Compliments of Weather Underground - 2.5 mb